Regional Weather Roundup
Issued by NWS Raleigh/Durham, NC

Home | Current Version | Previous Version | Text Only | Print | Product List | Glossary On
Versions: 1 2 3 4 5 6 7 8 9 10 11 12 13 14 15 16 17 18 19 20 21 22 23 24 25 26 27
000
ASUS42 KRAH 190510
RWRRAH
NORTH CAROLINA WEATHER ROUNDUP
NATIONAL WEATHER SERVICE RALEIGH NC
100 AM EDT SAT APR 19 2014

NOTE: "FAIR" INDICATES FEW OR NO CLOUDS BELOW 12,000 FEET WITH NO
SIGNIFICANT WEATHER AND/OR OBSTRUCTIONS TO VISIBILITY.

NCZ001-053-055-056-065-067-190600-
WESTERN NORTH CAROLINA

CITY           SKY/WX    TMP DP  RH WIND       PRES   REMARKS
ASHEVILLE      RAIN      47  45  93 N6        30.20S
JEFFERSON      CLOUDY    47  32  55 CALM      30.21F
MORGANTON      LGT RAIN  47  47  99 CALM      30.25S
HICKORY        LGT RAIN  47  44  90 CALM      30.20S
RUTHERFORDTON  LGT RAIN  48  46  93 N9        30.19F
MOUNT AIRY     LGT RAIN  51  41  70 CALM      30.20F
BOONE          LGT RAIN  43  43  99 CALM      30.21F
$$

NCZ021-022-025-041-071-084-088-190600-
CENTRAL NORTH CAROLINA

CITY           SKY/WX    TMP DP  RH WIND       PRES   REMARKS
CHARLOTTE      LGT RAIN  48  47  96 N8        30.18F
GREENSBORO     LGT RAIN  48  43  82 NE7       30.20F
WINSTON-SALEM  LGT RAIN  48  42  80 NE6       30.22F
RALEIGH-DURHAM LGT RAIN  49  45  86 NE7       30.22F
FORT BRAGG     RAIN      51  49  95 NE12      30.18F
FAYETTEVILLE   LGT RAIN  51  49  92 NE16G23   30.15F FOG
CHAPEL HILL    LGT RAIN  49  46  90 NE9       30.21F
BURLINGTON     LGT RAIN  49  44  83 NE7       30.21F
LAURINBURG     RAIN      50  50 100 NE14G23   30.14F FOG
$$

NCZ011-015-027-028-043-044-047-080-103-190600-
NORTHEASTERN NORTH CAROLINA

CITY           SKY/WX    TMP DP  RH WIND       PRES   REMARKS
ROCKY MT-WILSO CLOUDY    50  45  83 NE8       30.24F
GREENVILLE     LGT RAIN  48  45  87 NE3       30.26S
WASHINGTON     CLOUDY    48  43  85 NE9       30.23F
ELIZABETH CITY CLOUDY    47  43  86 N8        30.25F
MANTEO         CLOUDY    47  46  95 NE7       30.25F
CAPE HATTERAS  CLOUDY    51  51 100 NE12G21   30.20F
$$

NCZ078-087-090-091-093-098-101-190600-
SOUTHEASTERN NORTH CAROLINA

CITY           SKY/WX    TMP DP  RH WIND       PRES   REMARKS
LUMBERTON      LGT RAIN  52  50  93 NE10      30.14F FOG
GOLDSBORO      LGT RAIN  50  49  98 NE12      30.19F
KINSTON        RAIN      48  47  93 NE10      30.22F
KENANSVILLE    RAIN      49  48  95 N7        30.20F
NEW BERN       LGT RAIN  51  48  89 N8        30.21F
CHERRY POINT   CLOUDY    51  46  83 N13       30.19F
BEAUFORT       CLOUDY    53  50  89 NE13      30.16F
JACKSONVILLE   LGT RAIN  50  48  93 N12       30.15F
WILMINGTON     LGT RAIN  53  50  89 NE13      30.12F
$$




USA.gov is the U.S. government's official web portal to all federal, state and local government web resources and services.